Content
SEND FEEDBACK

Daily
Averages
Monthly
Summary
United States of America

CATANO, PUERTO RICO


Home > North America > United States > Puerto Rico
Elevation: 2 feet     Latitude: 18 25N     Longitude: 066 07W

WEATHER
 
SELECT A DAY
Number of Records: 164,346;   Date Range: 7/1/96 - 7/29/14
 
SHARE

PRINT THIS DATA

[ ← Previous Day ]
WEATHER ALMANAC - JANUARY 31, 2013
[ Next Day → ]
[ °C ]   °F
Weather ElementAverageHighLow
Temperature76.7 °F82 °F (10:56 am)73 °F (2:56 am)
Dewpoint71.3 °F73 °F (4:56 pm)70 °F (3:56 am)
Humidity83.3 %93 % (1:56 am)67 % (10:56 am)
Barometer30.05 in30.10 in (9:56 am)30.02 in (3:56 am)
Wind Speed7.6 mph17.3 mph (12:56 pm)
Wind Gust21.9 mph (11:56 am)
Weather ElementAverage
Visibility10 mi
Wind DirectionENE (69.1 °)

Weather ElementTotal
Precipitation0.12 in
Cooling Degree Days12.5 (Base 65)
Growing Degree Days27.5 (Base 50)
Averaged from 23 records on January 31, 2013
WEATHER CONDITIONS BREAKOUT
WIND DIRECTION BREAKOUT
WEATHER BY HOUR - JANUARY 31, 2013
[ °C ]   °F
Local TimeTemperatureDewpointHumidityBarometerVisibilityWind DirectionWind SpeedGust SpeedPrecipitationEventsConditions
1:56 AM73.9 °F72.0 °F93 %30.05 in10.0 miEast (90°)9.2 mph0.06 inScattered Clouds
2:56 AM73.0 °F71.1 °F93 %30.04 in10.0 miSE (140°)3.5 mphScattered Clouds
3:56 AM73.0 °F70.0 °F90 %30.02 in10.0 miCalmScattered Clouds
4:56 AM73.0 °F70.0 °F90 %30.03 in10.0 miCalmScattered Clouds
5:56 AM73.0 °F70.0 °F90 %30.03 in10.0 miSE (140°)3.5 mphScattered Clouds
6:56 AM73.0 °F70.0 °F90 %30.04 in10.0 miCalmScattered Clouds
7:56 AM73.9 °F70.0 °F87 %30.06 in10.0 miCalmScattered Clouds
8:56 AM78.1 °F71.1 °F79 %30.08 in10.0 miEast (90°)10.4 mphScattered Clouds
9:56 AM79.0 °F72.0 °F79 %30.10 in10.0 miEast (80°)10.4 mphMostly Cloudy
10:56 AM82.0 °F70.0 °F67 %30.10 in10.0 miEast (90°)13.8 mphMostly Cloudy
11:56 AM82.0 °F72.0 °F71 %30.09 in10.0 miEast (90°)16.1 mph21.9 mphScattered Clouds
12:56 PM81.0 °F71.1 °F72 %30.08 in10.0 miEast (90°)17.3 mph0.00 inScattered Clouds
1:56 PM81.0 °F71.1 °F72 %30.06 in10.0 miENE (70°)15.0 mph0.00 inScattered Clouds
2:56 PM78.1 °F72.0 °F81 %30.04 in10.0 miEast (80°)12.7 mph0.02 inScattered Clouds
3:56 PM80.1 °F71.1 °F74 %30.02 in10.0 miENE (60°)13.8 mph0.00 inScattered Clouds
4:56 PM79.0 °F73.0 °F82 %30.02 in10.0 miENE (70°)16.1 mph0.00 inScattered Clouds
5:56 PM77.0 °F71.1 °F82 %30.03 in10.0 miEast (80°)9.2 mphScattered Clouds
6:56 PM75.9 °F72.0 °F87 %30.04 in10.0 miEast (90°)8.1 mphScattered Clouds
7:56 PM77.0 °F72.0 °F84 %30.05 in10.0 miESE (110°)4.6 mph0.00 inScattered Clouds
8:56 PM75.9 °F72.0 °F87 %30.06 in10.0 miESE (110°)4.6 mph0.03 inScattered Clouds
9:56 PM75.9 °F72.0 °F87 %30.07 in10.0 miESE (110°)5.8 mph0.01 inScattered Clouds
10:56 PM75.0 °F72.0 °F90 %30.07 in10.0 miCalmScattered Clouds
11:56 PM75.0 °F72.0 °F90 %30.06 in10.0 miCalm0.00 inMostly Cloudy
Hourly data recorded from TJIG, located miles away from Catano, Puerto Rico







STORIES FROM OUR PARTNERS